HULIANWANG DIGUI-60

导读

HULIANWANG DIGUI-60是中国在2025年8月13日发射的低轨互联网卫星,隶属于低轨卫星互联网星座系统。低轨卫星互联网星座通过构建全球覆盖的卫星通信网络,可弥补地面通信覆盖盲区,为全球各类用户提供泛在互联服务,助力天地一体化信息网络建设。

Basic Information
目录编号:
65166
目录名称:
HULIANWANG DIGUI-60
国际标识:
2025-174C
轨道中心:
EARTH
卫星名称:
HULIANWANG DIGUI-60
卫星全名:
HULIANWANG DIGUI-60
卫星状态:
在轨 (已飞行398 天)
发射日期:
2025-08-13 UTC
国别 :
中国 (CN)
星等 :
--
This satellite is enrolled in the Space Conjunction Data Service (SCDS) and the current flight risk assessment level is: No High Risk
Orbit Information
数据来源 国际轨道数据 AOE轨道数据
星历时间 2026-09-15T21:29:31+0800
9小时前
查看轨道信息
2026-09-15T10:00:00+0800
20小时前
查看轨道信息
半长轴 7546.101km 7546.122km
偏心率 0.0002257 0.0001921
轨道倾角 86.497° 86.494°
近地点辐角 78.250° 79.184°
升交点赤经 221.482° 221.641°
平近点角 281.889° 159.232°
近地点 1166.26km 1166.535km
远地点 1169.668km 1169.435km
周期 108.729分钟 108.729分钟
每日圈数 13.243992 13.243937
Detailed Information
使用方式:
暂无
2D Orbit Map
3D Orbit Map
Orbit Altitude Analysis Chart
Orbit Inclination Analysis Chart
Orbit Comprehensive Analysis Chart
View Comprehensive Chart
Miss Distance Evolution Trend with All Objects Subscribe to Flight Safety Assessment
Collision Probability Evolution Trend with All Objects Subscribe to Flight Safety Assessment